Location: Newark
(25.0000°N, 73.5000°E)
Time: 01:19:50
(UTC+00:00)

Tiros 1 despin weight - Pass Details

Date: 04 March 2021
Orbit: 593 x 641 km, 48.2° (Epoch: 15 April)

Event Time Altitude Azimuth Distance (km) Brightness Sun altitude
Rises 16:26:44 0° 219° (SW) 2,832 - -45.0°
Reaches altitude 10° 16:29:00 10° 217° (SW) 1,938 - -45.5°
Maximum altitude 16:33:26 70° 134° (SE) 646 - -46.5°
Drops below altitude 10° 16:37:57 10° 50° (NE) 1,975 - -47.4°
Sets 16:40:17 0° 48° (NE) 2,891 - -47.9°
